SCP
0 0 0 0 0 0 0 0 0 0 0 0 0 0 0 0 0 0 0 0 0 0 0 0 0 0 0 0 0 0 0 0 0 0 0 0 0 0 0 0 0 0 0 0
0 0 0 0 0 0 0 0 0 0 0 0 0 0 0 0 0 0 0 0 0 0 0 0 0 0 0 0 0 0 0 0 0 0 0 0 0 0 0 0 0 0 0 0
0 0 0 0 0 0 0 0 0 0 0 0 0 0 0 0 0 0 0 0 0 0 0 0 0 0 0 0 0 0 0 0 0 0 0 0 0 0 0 0 0 0 0 0
0 0 0 0 0 0 0 0 0 0 0 0 0 -0 0 0 0 0 0 0 0 0 0 0 0 0 0 0 0 0 0 0 0 0 0 0 0 0 0 0 0 0 0 0
0 0 0 0 0 0 0 0 0 0 0 0 0 0 0 0 0 0 0 0 0 0 0 0 0 0 0 0 0 0 0 0 0 0 0 0 0 0 0 0 0 0 0 0
0 0 0 0 0 0 0 0 0 0 0 0 0 0 0 0 0 0 0 0 0 0 0 0 0 0 0 0 0 0 0 0 0 0 0 0 0 0 0 0 0 0 0 0
0 0 0 0 0 0 0 0 0 0 0 0 0 0 0 0 0 0 0 0 0 0 0 0 0 0 0 0 0 0 0 0 0 0 0 0 0 0 0 0 0 0 0 0
0 0 0 0 0 0 0 0 0 0 0 0 0 0 0 0 0 0 0 0 0 0 0 0 0 0 0 0 0 0 0 0 0 0 0 0 0 0 0 0 0 0 0 0
0 0 0 0 0 0 0 0 0 0 0 0 0 0 0 0 0 0 0 0 0 0 0 0 0 0 0 0 0 0 0 0 0 0 0 0 0 0 0 0 0 0 0 0
0 0 0 0 0 0 0 0 0 0 0 0 0 0 0 0 0 0 0 0 0 0 0 0 0 0 0 0 0 0 0 0 0 0 0 0 0 0 0 0 0 0 0 0
0 0 0 0 0 0 0 0 0 0 0 0 0 0 0 0 0 0 0 0 0 0 0 0 0 0 0 0 0 0 0 0 0 0 0 0 0 0 0 0 0 0 0 0
0 0 0 0 0 0 0 0 0 0 0 0 0 0 0 0 0 0 0 0 0 0 0 0 0 0 0 0 0 0 0 0 0 0 0 0 0 0 0 0 0 0 0 0
0 0 0 0 0 0 0 0 0 0 0 0 0 0 0 0 0 0 0 0 0 0 0 0 0 0 0 0 0 0 0 0 0 0 0 0 0 0 0 0 0 0 0 0
0 0 0 0 0 0 0 0 0 0 0 0 0 0 0 0 0 0 0 0 0 0 0 0 0 0 0 0 0 0 0 0 0 0 0 0 0 0 0 0 0 0 0 0
0 0 0 0 0 0 0 0 0 0 0 0 0 0 0 0 0 0 0 0 0 0 0 0 0 0 0 0 0 0 0 0 0 0 0 0 0 0 0 0 0 0 0 0
0 0 0 0 0 0 0 0 0 0 0 0 0 0 0 0 0 0 0 0 0 0 0 0 0 0 0 0 0 0 0 0 0 0 0 0 0 0 0 0 0 0 0 0
0 0 0 0 0 0 0 0 0 0 0 0 0 0 0 0 0 0 0 0 0 0 0 0 0 0 0 0 0 0 0 0 0 0 0 0 0 0 0 0 0 0 0 0
0 0 0 0 0 0 0 0 0 0 0 0 0 0 0 0 0 0 0 0 0 0 0 0 0 0 0 0 0 0 0 0 0 0 0 0 0 0 0 0 0 0 0 0
0 0 0 0 0 0 0 0 0 0 0 0 0 0 0 0 0 0 0 0 0 0 0 0 0 0 0 0 0 0 0 0 0 0 0 0 0 0 0 0 0 0 0 0
0 0 0 0 0 0 0 0 0 0 0 0 0 0 0 0 0 0 0 0 0 0 0 0 0 0 0 0 0 0 0 0 0 0 0 0 0 0 0 0 0 0 0 0
0 0 0 0 0 0 0 0 0 0 0 0 -0 0 0 0 0 0 0 0 0 0 0 0 0 0 0 0 0 0 0 0 0 0 0 0 0 0 0 0 0 0 0 0
0 0 0 0 0 0 0 -0 0 0 0 0 0 0 0 0 0 0 0 0 0 0 0 0 0 0 0 0 0 0 0 0 0 0 0 0 0 0 0 0 0 0 0 0
0 0 0 0 0 0 0 0 -0 -0 -0 -0 -0 -0 -0 -0 -0 -0 -0 -0 -0 0 0 0 0 0 0 0 0 0 0 0 0 0 0 0 0 0 0 0 0 0 0 0
-0 -0 -0 -0 -0 -0 -0 -0 -0 -0 -0 -0 -0 -0 -0 -0 -0 -0 -0 -0 -0 -0 -0 -0 -0 0 0 0 0 0 0 0 0 0 0 0 0 0 0 0 0 0 0 0
0 0 -0 -0 -0 -0 -0 -0 -0 -0 -0 -0 -0 -0 -0 -0 -0 -0 -0 -0 -0 -0 -0 -0 0 0 0 0 0 0 0 0 0 0 0 0 0 0 0 0 0 0 0 0
0 0 0 0 0 0 0 -0 -0 -0 -0 -0 -0 -0 0 0 -0 -0 -0 -0 -0 -0 -0 -0 0 0 0 0 0 0 0 0 0 0 0 0 0 0 0 0 0 0 0 0
Wind_Speed_500mb
18 9 20 44 34 13 9 12 16 37 20 19 35 36 40 57 46 51 75 84 89 98 100 87 80 75 84 84 84 85 84 80 76 78 80 81 79 74 71 66 63 59 53 48
5 21 36 6 18 18 21 28 30 29 21 21 30 41 34 23 35 57 60 82 96 93 89 73 65 68 88 91 89 86 84 81 79 79 80 81 77 74 68 64 64 59 56 53
35 20 37 25 17 20 38 28 37 36 20 12 18 21 25 23 39 61 75 94 99 88 82 69 63 67 83 95 93 88 83 79 79 76 76 80 73 70 72 76 73 67 63 60
23 29 24 14 15 25 41 20 26 23 7 25 9 29 18 14 27 21 53 79 87 83 74 62 64 69 85 94 89 81 75 76 76 77 80 85 87 88 88 81 74 69 67 64
20 7 15 25 47 21 38 7 10 4 9 11 12 14 9 18 18 22 32 71 87 84 69 54 60 62 82 89 85 76 73 75 77 77 82 86 90 89 81 74 70 69 68 66
20 2 8 15 4 12 6 2 1 6 5 24 15 19 9 13 22 13 29 64 70 66 53 45 57 66 79 81 78 76 78 79 80 78 81 85 88 89 82 79 77 76 73 69
5 26 13 13 7 3 3 10 8 8 1 27 23 22 44 13 13 22 25 52 62 65 41 32 59 69 70 79 80 81 83 87 85 81 81 82 86 87 84 82 83 82 79 77
6 28 25 16 36 21 19 21 14 15 22 43 6 17 13 24 30 52 66 66 68 42 34 47 49 54 61 72 80 83 88 90 88 88 85 82 84 85 85 86 87 86 82 75
14 21 2 5 5 17 8 12 18 1 5 4 22 26 16 8 21 20 42 34 40 43 46 52 47 47 51 66 78 84 87 92 94 95 93 89 87 86 87 87 87 85 81 74
13 22 17 7 8 2 12 3 4 3 5 15 35 9 30 28 43 39 12 24 35 37 39 41 41 44 47 56 67 84 86 92 98 100 98 95 93 87 87 86 87 87 84 82
13 13 38 10 12 18 2 8 9 4 11 29 36 29 13 10 5 7 14 24 27 26 31 35 37 41 44 59 71 80 87 91 98 103 103 103 101 97 93 87 87 88 86 85
8 7 10 19 12 8 8 16 21 19 22 10 14 29 43 23 18 11 19 19 23 13 20 40 41 41 63 65 69 77 85 94 93 100 107 109 108 103 98 92 89 87 85 83
10 8 10 18 26 8 13 12 14 13 4 26 30 31 47 45 47 30 20 29 49 79 86 62 51 64 73 70 74 79 87 92 94 99 106 111 112 106 102 98 91 84 84 85
27 18 23 33 35 20 20 23 22 29 28 49 41 59 55 67 57 50 61 84 88 87 78 64 55 67 78 81 84 90 93 92 94 99 105 110 110 107 104 101 94 83 82 85
22 23 38 53 59 57 59 58 55 51 47 39 52 44 52 63 43 51 75 82 78 72 50 48 62 71 71 83 85 92 94 98 99 102 104 106 105 104 104 104 93 82 79 84
18 30 34 47 51 58 62 62 57 60 63 54 65 64 69 75 96 76 92 74 65 67 74 78 73 74 81 84 91 98 102 105 103 104 104 103 102 103 105 103 91 84 81 86
23 15 26 55 44 49 47 68 71 64 53 47 57 69 72 63 55 59 87 74 71 77 80 80 76 67 69 84 84 89 90 94 104 104 101 99 98 100 103 97 92 89 87 86
38 31 21 32 31 41 29 41 60 67 66 67 67 58 55 57 77 94 80 63 72 80 82 73 73 77 84 71 67 67 76 82 90 94 93 94 94 97 97 95 92 89 86 88
45 44 26 35 40 46 7 21 43 37 61 55 49 46 29 59 52 64 52 54 61 72 65 53 51 62 61 56 55 53 60 66 76 81 87 93 93 94 96 94 92 89 87 89
27 38 33 39 50 59 34 17 36 19 26 28 26 29 28 36 19 19 91 78 82 85 81 76 72 57 38 43 46 45 51 60 64 70 80 85 88 91 92 90 91 89 84 88
34 29 36 42 37 26 27 41 38 14 20 48 41 31 33 23 21 61 78 89 93 82 92 88 78 73 70 64 49 44 47 55 59 63 70 76 82 86 87 88 89 88 89 95
11 9 12 11 16 18 41 21 19 22 34 38 60 46 46 51 59 58 72 80 87 91 92 88 81 78 71 75 67 47 47 51 57 60 65 72 77 83 88 86 87 90 93 100
12 6 8 9 12 33 31 51 29 18 26 30 38 60 54 58 61 64 67 72 78 75 81 79 70 72 71 66 70 69 69 51 53 60 65 70 72 77 84 85 90 91 100 102
11 21 8 22 13 38 55 48 43 54 57 67 60 71 69 64 65 74 72 72 80 84 82 79 80 80 76 58 55 63 72 74 71 63 67 73 75 80 80 82 88 94 106 101
17 20 12 26 27 38 41 41 45 55 47 56 71 74 71 57 65 68 76 80 76 79 82 82 89 84 85 86 72 75 76 86 84 76 77 79 80 83 81 85 94 104 102 93
23 27 22 28 44 22 47 60 43 40 45 47 59 69 85 82 75 77 73 78 78 75 74 78 83 83 88 93 89 77 82 89 94 90 84 88 92 95 92 93 98 101 96 86
Wind_Direction_500mb
198 148 208 225 202 224 237 256 238 268 259 205 240 240 251 255 257 249 258 264 265 268 274 271 267 258 243 236 233 232 231 228 227 226 221 223 226 227 231 232 233 234 235 236
252 218 227 220 208 227 248 259 264 278 270 198 251 252 254 240 248 251 243 256 262 265 270 270 261 253 235 233 230 230 231 230 229 229 227 228 231 231 235 237 236 236 236 237
221 222 219 225 239 261 248 248 258 255 291 238 283 267 251 244 244 249 255 259 264 262 265 265 253 244 229 225 227 229 231 231 230 230 227 227 226 230 231 232 234 235 236 236
247 235 221 194 211 208 262 224 256 270 281 274 136 290 220 239 236 238 247 255 259 265 264 261 245 235 226 226 226 231 233 230 229 229 226 227 228 228 232 237 239 238 237 237
233 212 207 226 233 197 263 210 246 228 241 316 176 283 209 192 235 243 244 252 264 268 268 247 234 232 222 222 225 230 232 228 227 228 228 229 231 234 237 239 237 236 236 236
249 233 229 209 157 190 130 123 4 27 59 264 180 210 180 193 218 230 244 254 260 260 257 243 231 221 220 222 225 228 226 226 226 227 230 231 233 235 234 234 233 234 235 235
262 222 206 158 194 313 154 85 304 314 359 258 183 220 254 284 230 214 225 240 237 244 249 233 213 214 220 223 224 224 224 224 224 226 229 232 234 235 234 236 238 235 234 234
258 285 154 189 204 190 196 184 176 214 264 278 120 249 253 226 236 240 236 240 239 241 219 228 214 222 224 224 224 223 224 225 225 226 228 231 235 236 236 236 239 238 238 238
207 260 12 170 106 148 176 176 215 339 94 334 262 272 291 292 276 273 246 240 234 232 212 218 224 229 229 226 226 225 226 226 227 227 228 231 235 236 236 236 239 239 239 237
240 269 207 156 128 1 174 170 86 247 211 243 270 258 270 284 280 280 244 216 209 204 214 219 231 237 238 238 236 233 232 234 232 230 230 232 236 236 238 238 240 238 237 235
352 281 271 109 196 180 127 253 230 262 193 247 262 273 220 193 236 308 245 228 216 221 236 244 241 244 246 245 242 239 237 238 237 238 236 235 235 235 236 239 239 238 236 234
152 307 292 258 260 240 198 214 211 238 257 231 267 266 270 313 325 330 304 246 206 213 281 279 264 277 273 256 247 246 245 243 244 243 240 238 237 237 238 240 239 238 235 234
151 208 250 293 288 218 206 209 219 243 224 246 263 264 274 281 284 288 274 259 288 297 293 289 277 266 260 254 252 250 249 251 248 245 243 240 239 238 239 240 239 236 234 233
174 199 213 241 239 273 272 269 260 251 252 255 245 259 265 263 257 267 265 259 265 274 278 277 271 269 262 262 262 261 252 251 249 247 244 241 240 241 239 241 238 234 234 232
188 234 218 229 242 252 250 255 247 243 240 241 253 249 256 261 274 264 265 267 267 269 273 261 270 269 271 270 266 263 256 252 251 248 244 242 241 240 240 240 236 234 233 232
201 236 228 239 230 235 244 248 250 250 248 252 252 256 250 261 265 271 270 277 280 278 270 265 267 272 270 270 270 267 262 256 251 247 245 241 239 238 238 236 233 230 230 228
220 221 232 249 231 235 241 233 237 242 245 245 245 239 245 260 259 261 271 277 276 276 276 275 277 270 278 285 279 270 264 259 253 247 242 240 237 238 235 235 231 228 226 225
269 265 249 261 254 238 230 222 232 245 248 251 254 259 252 255 267 268 276 296 305 300 290 286 286 290 297 297 288 271 261 256 250 243 242 241 238 235 235 232 229 227 224 222
231 247 258 260 253 257 284 222 231 235 249 260 286 286 324 348 305 275 11 347 340 347 357 345 319 306 302 301 296 271 256 249 246 242 242 240 237 234 232 229 227 226 223 221
268 249 247 252 259 263 283 28 351 324 251 20 23 14 356 354 13 339 338 332 326 328 332 338 342 344 333 325 313 288 263 248 246 248 243 239 236 235 233 230 227 224 222 220
274 286 263 259 264 274 341 9 348 271 350 318 1 0 358 348 331 309 315 314 309 311 317 322 324 324 326 332 330 302 282 269 256 249 246 242 238 235 233 229 225 222 216 214
282 315 289 321 282 274 27 49 16 298 294 320 322 333 329 316 311 306 304 301 302 307 313 315 315 313 316 318 316 315 296 281 265 256 250 244 239 235 230 225 223 218 215 211
255 4 288 309 324 305 314 319 326 322 317 311 316 322 322 318 318 314 311 306 305 306 311 311 310 307 302 307 311 306 300 296 281 267 258 248 241 236 231 226 222 215 213 211
273 314 294 306 274 298 306 316 324 334 333 326 326 320 319 311 307 304 304 298 298 301 304 306 304 301 297 294 295 291 285 277 273 269 261 251 242 235 229 226 224 219 212 210
267 299 266 280 279 297 296 310 326 321 315 320 317 317 316 313 307 304 302 300 296 296 296 295 291 291 289 293 288 281 276 275 265 256 257 255 248 239 231 225 220 215 214 214
253 262 270 279 295 306 301 313 326 321 324 319 317 310 309 309 307 306 301 301 302 299 295 289 285 284 286 288 288 283 279 272 263 253 244 239 237 232 222 219 212 211 209 210
Wind_Speed_850mb
18 9 20 44 34 13 9 12 16 37 20 19 35 36 40 57 46 51 75 84 89 98 100 87 80 75 84 84 84 85 84 80 76 78 80 81 79 74 71 66 63 59 53 48
5 21 36 6 18 18 21 28 30 29 21 21 30 41 34 23 35 57 60 82 96 93 89 73 65 68 88 91 89 86 84 81 79 79 80 81 77 74 68 64 64 59 56 53
35 20 37 25 17 20 38 28 37 36 20 12 18 21 25 23 39 61 75 94 99 88 82 69 63 67 83 95 93 88 83 79 79 76 76 80 73 70 72 76 73 67 63 60
23 29 24 14 15 25 41 20 26 23 7 25 9 29 18 14 27 21 53 79 87 83 74 62 64 69 85 94 89 81 75 76 76 77 80 85 87 88 88 81 74 69 67 64
20 7 15 25 47 21 38 7 10 4 9 11 12 14 9 18 18 22 32 71 87 84 69 54 60 62 82 89 85 76 73 75 77 77 82 86 90 89 81 74 70 69 68 66
20 2 8 15 4 12 6 2 1 6 5 24 15 19 9 13 22 13 29 64 70 66 53 45 57 66 79 81 78 76 78 79 80 78 81 85 88 89 82 79 77 76 73 69
5 26 13 13 7 3 3 10 8 8 1 27 23 22 44 13 13 22 25 52 62 65 41 32 59 69 70 79 80 81 83 87 85 81 81 82 86 87 84 82 83 82 79 77
6 28 25 16 36 21 19 21 14 15 22 43 6 17 13 24 30 52 66 66 68 42 34 47 49 54 61 72 80 83 88 90 88 88 85 82 84 85 85 86 87 86 82 75
14 21 2 5 5 17 8 12 18 1 5 4 22 26 16 8 21 20 42 34 40 43 46 52 47 47 51 66 78 84 87 92 94 95 93 89 87 86 87 87 87 85 81 74
13 22 17 7 8 2 12 3 4 3 5 15 35 9 30 28 43 39 12 24 35 37 39 41 41 44 47 56 67 84 86 92 98 100 98 95 93 87 87 86 87 87 84 82
13 13 38 10 12 18 2 8 9 4 11 29 36 29 13 10 5 7 14 24 27 26 31 35 37 41 44 59 71 80 87 91 98 103 103 103 101 97 93 87 87 88 86 85
8 7 10 19 12 8 8 16 21 19 22 10 14 29 43 23 18 11 19 19 23 13 20 40 41 41 63 65 69 77 85 94 93 100 107 109 108 103 98 92 89 87 85 83
10 8 10 18 26 8 13 12 14 13 4 26 30 31 47 45 47 30 20 29 49 79 86 62 51 64 73 70 74 79 87 92 94 99 106 111 112 106 102 98 91 84 84 85
27 18 23 33 35 20 20 23 22 29 28 49 41 59 55 67 57 50 61 84 88 87 78 64 55 67 78 81 84 90 93 92 94 99 105 110 110 107 104 101 94 83 82 85
22 23 38 53 59 57 59 58 55 51 47 39 52 44 52 63 43 51 75 82 78 72 50 48 62 71 71 83 85 92 94 98 99 102 104 106 105 104 104 104 93 82 79 84
18 30 34 47 51 58 62 62 57 60 63 54 65 64 69 75 96 76 92 74 65 67 74 78 73 74 81 84 91 98 102 105 103 104 104 103 102 103 105 103 91 84 81 86
23 15 26 55 44 49 47 68 71 64 53 47 57 69 72 63 55 59 87 74 71 77 80 80 76 67 69 84 84 89 90 94 104 104 101 99 98 100 103 97 92 89 87 86
38 31 21 32 31 41 29 41 60 67 66 67 67 58 55 57 77 94 80 63 72 80 82 73 73 77 84 71 67 67 76 82 90 94 93 94 94 97 97 95 92 89 86 88
45 44 26 35 40 46 7 21 43 37 61 55 49 46 29 59 52 64 52 54 61 72 65 53 51 62 61 56 55 53 60 66 76 81 87 93 93 94 96 94 92 89 87 89
27 38 33 39 50 59 34 17 36 19 26 28 26 29 28 36 19 19 91 78 82 85 81 76 72 57 38 43 46 45 51 60 64 70 80 85 88 91 92 90 91 89 84 88
34 29 36 42 37 26 27 41 38 14 20 48 41 31 33 23 21 61 78 89 93 82 92 88 78 73 70 64 49 44 47 55 59 63 70 76 82 86 87 88 89 88 89 95
11 9 12 11 16 18 41 21 19 22 34 38 60 46 46 51 59 58 72 80 87 91 92 88 81 78 71 75 67 47 47 51 57 60 65 72 77 83 88 86 87 90 93 100
12 6 8 9 12 33 31 51 29 18 26 30 38 60 54 58 61 64 67 72 78 75 81 79 70 72 71 66 70 69 69 51 53 60 65 70 72 77 84 85 90 91 100 102
11 21 8 22 13 38 55 48 43 54 57 67 60 71 69 64 65 74 72 72 80 84 82 79 80 80 76 58 55 63 72 74 71 63 67 73 75 80 80 82 88 94 106 101
17 20 12 26 27 38 41 41 45 55 47 56 71 74 71 57 65 68 76 80 76 79 82 82 89 84 85 86 72 75 76 86 84 76 77 79 80 83 81 85 94 104 102 93
23 27 22 28 44 22 47 60 43 40 45 47 59 69 85 82 75 77 73 78 78 75 74 78 83 83 88 93 89 77 82 89 94 90 84 88 92 95 92 93 98 101 96 86
Wind_Direction_850mb
198 148 208 225 202 224 237 256 238 268 259 205 240 240 251 255 257 249 258 264 265 268 274 271 267 258 243 236 233 232 231 228 227 226 221 223 226 227 231 232 233 234 235 236
252 218 227 220 208 227 248 259 264 278 270 198 251 252 254 240 248 251 243 256 262 265 270 270 261 253 235 233 230 230 231 230 229 229 227 228 231 231 235 237 236 236 236 237
221 222 219 225 239 261 248 248 258 255 291 238 283 267 251 244 244 249 255 259 264 262 265 265 253 244 229 225 227 229 231 231 230 230 227 227 226 230 231 232 234 235 236 236
247 235 221 194 211 208 262 224 256 270 281 274 136 290 220 239 236 238 247 255 259 265 264 261 245 235 226 226 226 231 233 230 229 229 226 227 228 228 232 237 239 238 237 237
233 212 207 226 233 197 263 210 246 228 241 316 176 283 209 192 235 243 244 252 264 268 268 247 234 232 222 222 225 230 232 228 227 228 228 229 231 234 237 239 237 236 236 236
249 233 229 209 157 190 130 123 4 27 59 264 180 210 180 193 218 230 244 254 260 260 257 243 231 221 220 222 225 228 226 226 226 227 230 231 233 235 234 234 233 234 235 235
262 222 206 158 194 313 154 85 304 314 359 258 183 220 254 284 230 214 225 240 237 244 249 233 213 214 220 223 224 224 224 224 224 226 229 232 234 235 234 236 238 235 234 234
258 285 154 189 204 190 196 184 176 214 264 278 120 249 253 226 236 240 236 240 239 241 219 228 214 222 224 224 224 223 224 225 225 226 228 231 235 236 236 236 239 238 238 238
207 260 12 170 106 148 176 176 215 339 94 334 262 272 291 292 276 273 246 240 234 232 212 218 224 229 229 226 226 225 226 226 227 227 228 231 235 236 236 236 239 239 239 237
240 269 207 156 128 1 174 170 86 247 211 243 270 258 270 284 280 280 244 216 209 204 214 219 231 237 238 238 236 233 232 234 232 230 230 232 236 236 238 238 240 238 237 235
352 281 271 109 196 180 127 253 230 262 193 247 262 273 220 193 236 308 245 228 216 221 236 244 241 244 246 245 242 239 237 238 237 238 236 235 235 235 236 239 239 238 236 234
152 307 292 258 260 240 198 214 211 238 257 231 267 266 270 313 325 330 304 246 206 213 281 279 264 277 273 256 247 246 245 243 244 243 240 238 237 237 238 240 239 238 235 234
151 208 250 293 288 218 206 209 219 243 224 246 263 264 274 281 284 288 274 259 288 297 293 289 277 266 260 254 252 250 249 251 248 245 243 240 239 238 239 240 239 236 234 233
174 199 213 241 239 273 272 269 260 251 252 255 245 259 265 263 257 267 265 259 265 274 278 277 271 269 262 262 262 261 252 251 249 247 244 241 240 241 239 241 238 234 234 232
188 234 218 229 242 252 250 255 247 243 240 241 253 249 256 261 274 264 265 267 267 269 273 261 270 269 271 270 266 263 256 252 251 248 244 242 241 240 240 240 236 234 233 232
201 236 228 239 230 235 244 248 250 250 248 252 252 256 250 261 265 271 270 277 280 278 270 265 267 272 270 270 270 267 262 256 251 247 245 241 239 238 238 236 233 230 230 228
220 221 232 249 231 235 241 233 237 242 245 245 245 239 245 260 259 261 271 277 276 276 276 275 277 270 278 285 279 270 264 259 253 247 242 240 237 238 235 235 231 228 226 225
269 265 249 261 254 238 230 222 232 245 248 251 254 259 252 255 267 268 276 296 305 300 290 286 286 290 297 297 288 271 261 256 250 243 242 241 238 235 235 232 229 227 224 222
231 247 258 260 253 257 284 222 231 235 249 260 286 286 324 348 305 275 11 347 340 347 357 345 319 306 302 301 296 271 256 249 246 242 242 240 237 234 232 229 227 226 223 221
268 249 247 252 259 263 283 28 351 324 251 20 23 14 356 354 13 339 338 332 326 328 332 338 342 344 333 325 313 288 263 248 246 248 243 239 236 235 233 230 227 224 222 220
274 286 263 259 264 274 341 9 348 271 350 318 1 0 358 348 331 309 315 314 309 311 317 322 324 324 326 332 330 302 282 269 256 249 246 242 238 235 233 229 225 222 216 214
282 315 289 321 282 274 27 49 16 298 294 320 322 333 329 316 311 306 304 301 302 307 313 315 315 313 316 318 316 315 296 281 265 256 250 244 239 235 230 225 223 218 215 211
255 4 288 309 324 305 314 319 326 322 317 311 316 322 322 318 318 314 311 306 305 306 311 311 310 307 302 307 311 306 300 296 281 267 258 248 241 236 231 226 222 215 213 211
273 314 294 306 274 298 306 316 324 334 333 326 326 320 319 311 307 304 304 298 298 301 304 306 304 301 297 294 295 291 285 277 273 269 261 251 242 235 229 226 224 219 212 210
267 299 266 280 279 297 296 310 326 321 315 320 317 317 316 313 307 304 302 300 296 296 296 295 291 291 289 293 288 281 276 275 265 256 257 255 248 239 231 225 220 215 214 214
253 262 270 279 295 306 301 313 326 321 324 319 317 310 309 309 307 306 301 301 302 299 295 289 285 284 286 288 288 283 279 272 263 253 244 239 237 232 222 219 212 211 209 210